User: anonymous   Login
Location: Brno
(49.2000°N, 16.6330°E)
Time: 07:24:25
(UTC+02:00)
Language:

Iridium 2 - Orbit

View from above orbital plane
View from above orbital plane
View from above satellite
View from above satellite

Ground track
Ground track

The orbit data is extracted from the following two-line orbital elements,

1 25527U 98066A   15215.51310963  .00003401  00000-0  19043-3 0  9990
2 25527 085.5289 074.8788 0012666 080.1568 355.0585 15.12995848914367
Epoch (UTC): 03 August 2015 12:18:52
Eccentricity: 0.0012666
inclination: 85.5289°
perigee height: 518 km
apogee height: 536 km
right ascension of ascending node: 74.8788°
argument of perigee: 80.1568°
revolutions per day: 15.12995848
mean anomaly at epoch: 355.0585°
orbit number at epoch: 91436

The dashed part of the orbit path shows where the satellite is in the earth's shadow,  

DLR